Home   Weather   Cheltenham   Past weeks

Flag for United Kingdom Past Weather in Cheltenham, England, United Kingdom — Yesterday and Last 2 Weeks

Now
45 °F

Passing clouds.


Feels Like: 41 °F
Forecast: N/A
Wind: 6 mph from Southwest

Location: Staverton Private

Current Time: Mar 1, 2017 at 8:04:36 pm

Latest Report: Mar 1, 2017 at 7:20 pm


Visibility: N/A

Pressure: 29.42 "Hg

Humidity: 93%

Dew Point: 43 °F

Location of CheltenhamLocation

Past Weather in Cheltenham — Graph

°F

Cheltenham Temperature Yesterday

Maximum temperature yesterday: 46 °F (at 3:50 pm)
Minimum temperature yesterday: 37 °F (at 8:20 am)
Average temperature yesterday: 43 °F

High & Low Weather Summary for the Past Weeks

 TemperatureHumidityPressure
High57 °F (Feb 20, 12:20 pm)100% (Feb 20, 8:50 am)30.39 "Hg (Feb 20, 8:50 am)
Low37 °F (Feb 24, 8:20 am)47% (Feb 24, 1:20 pm)29.03 "Hg (Feb 27, 12:50 pm)
Average49 °F81%29.84 "Hg
* Reported Feb 14 6:20 pm — Mar 1 6:50 pm, Cheltenham, Weather by CustomWeather, © 2017

Note: Actual official high and low records may vary slightly from our data, if they occured in-between our weather recording intervals... More about our weather records

Advertising

Cheltenham Weather History for the Previous 24 Hours

Scroll right to see more
 ConditionsComfort  
Time TempWeatherWind HumidityBarometerVisibility
6:50 pm
Wed, Mar 1
45 °FPassing clouds.8 mph93%29.42 "HgN/A
6:20 pm45 °FPassing clouds.7 mph87%29.42 "HgN/A
5:50 pm45 °FPassing clouds.7 mph93%29.42 "HgN/A
5:20 pm46 °FSprinkles. Passing clouds.8 mph87%29.42 "HgN/A
4:50 pm46 °FPassing clouds.8 mph87%29.42 "HgN/A
4:20 pm46 °FPassing clouds.8 mph82%29.42 "HgN/A
3:50 pm48 °FPassing clouds.10 mph76%29.42 "HgN/A
3:20 pm48 °FPassing clouds.9 mph76%29.45 "HgN/A
2:50 pm48 °FSprinkles. Scattered clouds.9 mph71%29.45 "HgN/A
2:20 pm48 °FScattered clouds.9 mph66%29.45 "HgN/A
1:50 pm48 °FScattered clouds.9 mph71%29.45 "HgN/A
1:20 pm48 °FScattered clouds.10 mph66%29.45 "HgN/A
12:50 pm48 °FScattered clouds.8 mph71%29.45 "HgN/A
12:20 pm48 °FScattered clouds.8 mph71%29.47 "HgN/A
11:50 am46 °FPassing clouds.9 mph82%29.47 "HgN/A
11:20 am46 °FPassing clouds.10 mph76%29.47 "HgN/A
10:50 am46 °FPassing clouds.9 mph76%29.47 "HgN/A
10:20 am46 °FPassing clouds.9 mph76%29.47 "HgN/A
9:50 am45 °FPassing clouds.8 mph81%29.47 "HgN/A
9:20 am45 °FPassing clouds.5 mph76%29.47 "HgN/A
8:50 am45 °FScattered clouds.7 mph76%29.47 "HgN/A
Weather by CustomWeather, © 2017

See weather overviewHow to use our weather pages